• în România
  • Lista ţărilor
  • Pe 7 zile
  • Temperatura apei
  • Hartă satelitară
  • Meteo pe hartă
  • Widget-uri
  • user-avatar
    Intrare

    Meteo pe oră la Chichester

    Astăzi, 17 Octombrie, Miercuri

    Timp Temperatura Precipitaţii Vânt Presiune Umiditate
    00:00 +12°C° 0 mm 4 m/s 761 mmHg 89%
    01:00 +12°C° 0 mm 4 m/s 761 mmHg 89%
    02:00 +12°C° 0 mm 4 m/s 761 mmHg 89%
    03:00 +12°C° 0 mm 4 m/s 761 mmHg 89%
    04:00 +12°C° 0 mm 4 m/s 761 mmHg 89%
    05:00 +12°C° 0 mm 3 m/s 761 mmHg 89%
    06:00 +12°C° 0 mm 3 m/s 761 mmHg 89%
    07:00 +13°C° 0.1 mm 3 m/s 761 mmHg 89%
    08:00 +13°C° 0.1 mm 3 m/s 762 mmHg 88%
    09:00 +14°C° 0.1 mm 3 m/s 762 mmHg 88%
    10:00 +15°C° 0.2 mm 2 m/s 762 mmHg 88%
    11:00 +15°C° 0.2 mm 2 m/s 762 mmHg 88%
    12:00 +15°C° 0.2 mm 2 m/s 762 mmHg 88%
    13:00 +15°C° 0.2 mm 1 m/s 762 mmHg 89%
    14:00 +15°C° 0.2 mm 1 m/s 762 mmHg 89%
    15:00 +15°C° 0.2 mm 1 m/s 762 mmHg 90%
    16:00 +15°C° 0.1 mm 1 m/s 763 mmHg 91%
    17:00 +14°C° 0.1 mm 1 m/s 763 mmHg 92%
    18:00 +14°C° 0.1 mm 2 m/s 764 mmHg 93%
    19:00 +14°C° 0 mm 2 m/s 764 mmHg 92%
    20:00 +13°C° 0 mm 3 m/s 764 mmHg 91%
    21:00 +13°C° 0 mm 3 m/s 765 mmHg 90%
    22:00 +13°C° 0 mm 4 m/s 765 mmHg 89%
    23:00 +13°C° 0 mm 4 m/s 765 mmHg 88%

    Mâine, 18 Octombrie, Joi

    Timp Temperatura Precipitaţii Vânt Presiune Umiditate
    00:00 +12°C° 0 mm 5 m/s 766 mmHg 87%
    01:00 +12°C° 0 mm 5 m/s 766 mmHg 87%
    02:00 +12°C° 0 mm 5 m/s 766 mmHg 87%
    03:00 +11°C° 0 mm 6 m/s 766 mmHg 87%
    04:00 +11°C° 0 mm 6 m/s 766 mmHg 87%
    05:00 +11°C° 0 mm 6 m/s 766 mmHg 87%
    06:00 +10°C° 0 mm 6 m/s 766 mmHg 87%
    07:00 +11°C° 0 mm 6 m/s 767 mmHg 85%
    08:00 +11°C° 0 mm 6 m/s 767 mmHg 83%
    09:00 +13°C° 0 mm 6 m/s 767 mmHg 81%
    10:00 +14°C° 0 mm 6 m/s 767 mmHg 77%
    11:00 +14°C° 0 mm 6 m/s 767 mmHg 73%
    12:00 +15°C° 0 mm 6 m/s 767 mmHg 69%
    13:00 +15°C° 0 mm 6 m/s 767 mmHg 68%
    14:00 +15°C° 0 mm 6 m/s 767 mmHg 67%
    15:00 +15°C° 0 mm 6 m/s 766 mmHg 65%
    16:00 +14°C° 0 mm 5 m/s 767 mmHg 69%
    17:00 +13°C° 0 mm 5 m/s 767 mmHg 73%
    18:00 +12°C° 0 mm 5 m/s 767 mmHg 77%
    19:00 +10°C° 0 mm 5 m/s 767 mmHg 78%
    20:00 +10°C° 0 mm 5 m/s 767 mmHg 79%
    21:00 +9°C° 0 mm 5 m/s 768 mmHg 79%
    22:00 +10°C° 0 mm 4 m/s 768 mmHg 82%
    23:00 +10°C° 0 mm 4 m/s 767 mmHg 84%

    Poimâine, 19 Octombrie, Vineri

    Timp Temperatura Precipitaţii Vânt Presiune Umiditate
    00:00 +10°C° 0 mm 4 m/s 767 mmHg 86%
    01:00 +8°C° 0 mm 4 m/s 767 mmHg 88%
    02:00 +9°C° 0 mm 3 m/s 767 mmHg 91%
    03:00 +9°C° 0 mm 3 m/s 767 mmHg 93%
    04:00 +9°C° 0 mm 3 m/s 767 mmHg 94%
    05:00 +8°C° 0 mm 4 m/s 767 mmHg 94%
    06:00 +8°C° 0 mm 4 m/s 768 mmHg 95%
    07:00 +10°C° 0 mm 4 m/s 768 mmHg 91%
    08:00 +11°C° 0 mm 4 m/s 768 mmHg 88%
    09:00 +12°C° 0 mm 4 m/s 768 mmHg 84%
    10:00 +13°C° 0 mm 4 m/s 768 mmHg 79%
    11:00 +16°C° 0 mm 3 m/s 768 mmHg 73%
    12:00 +17°C° 0 mm 3 m/s 768 mmHg 68%
    13:00 +17°C° 0 mm 3 m/s 768 mmHg 67%
    14:00 +17°C° 0 mm 3 m/s 768 mmHg 66%
    15:00 +17°C° 0 mm 2 m/s 768 mmHg 65%
    16:00 +16°C° 0 mm 2 m/s 768 mmHg 70%
    17:00 +13°C° 0 mm 3 m/s 769 mmHg 75%
    18:00 +12°C° 0 mm 3 m/s 769 mmHg 80%
    19:00 +12°C° 0 mm 3 m/s 769 mmHg 82%
    20:00 +11°C° 0 mm 3 m/s 770 mmHg 83%
    21:00 +11°C° 0 mm 3 m/s 770 mmHg 85%
    22:00 +10°C° 0 mm 3 m/s 770 mmHg 86%
    23:00 +10°C° 0 mm 2 m/s 770 mmHg 87%

    20 Octombrie, Sâmbătă

    Timp Temperatura Precipitaţii Vânt Presiune Umiditate
    00:00 +10°C° 0 mm 2 m/s 770 mmHg 88%
    01:00 +10°C° 0 mm 2 m/s 770 mmHg 89%
    02:00 +9°C° 0 mm 2 m/s 770 mmHg 89%
    03:00 +9°C° 0 mm 2 m/s 770 mmHg 90%
    04:00 +9°C° 0 mm 2 m/s 771 mmHg 90%
    05:00 +9°C° 0 mm 2 m/s 771 mmHg 90%
    06:00 +9°C° 0 mm 3 m/s 771 mmHg 91%
    07:00 +10°C° 0 mm 3 m/s 771 mmHg 86%
    08:00 +11°C° 0 mm 3 m/s 772 mmHg 82%
    09:00 +12°C° 0 mm 3 m/s 772 mmHg 78%
    10:00 +14°C° 0 mm 2 m/s 772 mmHg 72%
    11:00 +16°C° 0 mm 2 m/s 772 mmHg 66%
    12:00 +17°C° 0 mm 2 m/s 772 mmHg 60%
    13:00 +17°C° 0 mm 2 m/s 772 mmHg 59%
    14:00 +17°C° 0 mm 2 m/s 772 mmHg 57%
    15:00 +17°C° 0 mm 2 m/s 772 mmHg 56%
    16:00 +16°C° 0 mm 2 m/s 772 mmHg 62%
    17:00 +14°C° 0 mm 2 m/s 772 mmHg 68%
    18:00 +13°C° 0 mm 2 m/s 772 mmHg 74%
    19:00 +12°C° 0 mm 2 m/s 772 mmHg 77%
    20:00 +12°C° 0 mm 2 m/s 772 mmHg 79%
    21:00 +10°C° 0 mm 2 m/s 772 mmHg 81%
    22:00 +10°C° 0 mm 2 m/s 772 mmHg 83%
    23:00 +10°C° 0 mm 2 m/s 772 mmHg 84%

    21 Octombrie, Duminică

    Timp Temperatura Precipitaţii Vânt Presiune Umiditate
    00:00 +9°C° 0 mm 2 m/s 772 mmHg 85%
    01:00 +9°C° 0 mm 2 m/s 771 mmHg 86%
    02:00 +9°C° 0 mm 2 m/s 771 mmHg 86%
    03:00 +9°C° 0 mm 2 m/s 771 mmHg 87%
    04:00 +8°C° 0 mm 2 m/s 771 mmHg 87%
    05:00 +9°C° 0 mm 1 m/s 770 mmHg 87%
    06:00 +9°C° 0 mm 1 m/s 770 mmHg 87%
    07:00 +10°C° 0 mm 1 m/s 770 mmHg 82%
    08:00 +12°C° 0 mm 1 m/s 770 mmHg 77%
    09:00 +13°C° 0 mm 1 m/s 770 mmHg 72%
    10:00 +14°C° 0 mm 1 m/s 770 mmHg 66%
    11:00 +16°C° 0 mm 1 m/s 770 mmHg 60%
    12:00 +18°C° 0 mm 1 m/s 770 mmHg 55%
    13:00 +18°C° 0 mm 1 m/s 770 mmHg 55%
    14:00 +19°C° 0 mm 1 m/s 770 mmHg 56%
    15:00 +19°C° 0 mm 1 m/s 769 mmHg 57%
    16:00 +18°C° 0 mm 1 m/s 769 mmHg 65%
    17:00 +15°C° 0 mm 1 m/s 769 mmHg 72%
    18:00 +14°C° 0 mm 1 m/s 769 mmHg 80%
    19:00 +14°C° 0 mm 2 m/s 770 mmHg 82%
    20:00 +14°C° 0 mm 2 m/s 770 mmHg 84%
    21:00 +13°C° 0 mm 3 m/s 770 mmHg 85%
    22:00 +13°C° 0 mm 4 m/s 771 mmHg 85%
    23:00 +13°C° 0 mm 5 m/s 771 mmHg 85%

    22 Octombrie, Luni

    Timp Temperatura Precipitaţii Vânt Presiune Umiditate
    00:00 +13°C° 0 mm 6 m/s 771 mmHg 84%
    01:00 +12°C° 0 mm 7 m/s 771 mmHg 82%
    02:00 +11°C° 0 mm 7 m/s 771 mmHg 79%
    03:00 +11°C° 0 mm 7 m/s 771 mmHg 77%
    04:00 +10°C° 0.1 mm 8 m/s 772 mmHg 77%
    05:00 +10°C° 0.1 mm 8 m/s 772 mmHg 77%
    06:00 +9°C° 0.1 mm 8 m/s 772 mmHg 78%
    07:00 +9°C° 0 mm 8 m/s 773 mmHg 75%
    08:00 +9°C° 0 mm 8 m/s 773 mmHg 73%
    09:00 +9°C° 0 mm 8 m/s 773 mmHg 71%
    10:00 +10°C° 0 mm 8 m/s 773 mmHg 67%
    11:00 +11°C° 0 mm 7 m/s 774 mmHg 62%
    12:00 +12°C° 0 mm 7 m/s 774 mmHg 58%
    13:00 +12°C° 0 mm 7 m/s 774 mmHg 57%
    14:00 +11°C° 0 mm 7 m/s 773 mmHg 56%
    15:00 +11°C° 0 mm 6 m/s 773 mmHg 55%
    16:00 +10°C° 0 mm 6 m/s 773 mmHg 59%
    17:00 +9°C° 0 mm 6 m/s 774 mmHg 63%
    18:00 +8°C° 0 mm 6 m/s 774 mmHg 67%
    19:00 +7°C° 0 mm 6 m/s 774 mmHg 69%
    20:00 +7°C° 0 mm 6 m/s 774 mmHg 72%
    21:00 +5°C° 0 mm 6 m/s 774 mmHg 74%
    22:00 +6°C° 0 mm 5 m/s 774 mmHg 77%
    23:00 +6°C° 0 mm 5 m/s 774 mmHg 81%
    Arată mai mult